DW6283 Weather Reports


Display with metric or nautical units.
time (UTC)temp
F
wind
direction
speed
MPH
gust
MPH
rain 1hr
in
rain 24hr
in
rain mn
in
humidity
%
barometer
mb
20260506044537 58 86 0.0 2.0 0.00 0.00 0.00 72 1016.1
20260506043008 59 86 0.0 2.0 0.00 0.00 0.00 71 1015.9
20260506041506 59 86 0.0 1.0 0.00 0.00 0.00 69 1015.7
20260506040047 60 86 0.0 0.0 0.00 0.00 0.00 68 1015.5
20260506034552 60 86 0.0 2.0 0.00 0.00 0.00 66 1015.3
20260506033027 61 86 0.0 1.0 0.00 0.00 0.00 65 1015.0
20260506031529 62 90 0.0 2.0 0.00 0.00 0.00 63 1014.8
20260506030009 63 92 0.0 1.0 0.00 0.00 0.00 61 1014.7
20260506024516 64 93 0.0 3.0 0.00 0.00 0.00 59 1014.6
20260506023057 64 95 0.0 3.0 0.00 0.00 0.00 57 1014.4
20260506021557 65 92 0.0 2.0 0.00 0.00 0.00 56 1014.3
20260506020033 65 94 0.0 5.0 0.00 0.00 0.00 55 1014.2
20260506014533 66 134 0.0 6.0 0.00 0.00 0.00 53 1014.1
20260506013015 67 94 0.0 3.0 0.00 0.00 0.00 52 1014.1
20260506011534 67 94 0.0 2.0 0.00 0.00 0.00 51 1014.2
20260506010119 67 94 0.0 3.0 0.00 0.00 0.00 50 1014.2
20260506004556 68 94 0.0 5.0 0.00 0.00 0.00 49 1014.2
20260506003042 68 94 0.0 5.0 0.00 0.00 0.00 48 1014.2
20260506001542 69 94 0.0 2.0 0.00 0.00 0.00 48 1014.1
20260506000027 69 94 0.0 2.0 0.00 0.00 0.00 47 1014.1
20260505234530 69 94 0.0 3.0 0.00 0.00 0.00 48 1014.2
20260505233032 69 94 0.0 5.0 0.00 0.00 0.00 47 1014.2
20260505231536 69 94 0.0 2.0 0.00 0.00 0.00 48 1014.2
20260505230028 69 90 0.0 4.0 0.00 0.00 0.00 47 1014.2
20260505224525 71 103 1.0 4.0 0.00 0.00 0.00 44 1014.3
20260505223024 73 94 0.0 3.0 0.00 0.00 0.00 41 1014.4
20260505221524 74 77 0.0 3.0 0.00 0.00 0.00 40 1014.3
20260505220008 72 82 0.0 5.0 0.00 0.00 0.00 41 1014.3
20260505214511 74 90 1.0 7.0 0.00 0.00 0.00 40 1014.5
20260505213049 76 34 1.0 6.0 0.00 0.00 0.00 37 1014.6
20260505211547 76 96 0.0 7.0 0.00 0.00 0.00 36 1014.5
20260505210028 75 76 0.0 4.0 0.00 0.00 0.00 40 1014.5
20260505204527 74 74 0.0 5.0 0.00 0.00 0.00 41 1014.5
20260505203012 76 80 0.0 4.0 0.00 0.00 0.00 37 1014.6
20260505201507 75 63 0.0 4.0 0.00 0.00 0.00 40 1014.6
20260505200048 74 100 0.0 5.0 0.00 0.00 0.00 42 1014.7
20260505194556 74 81 0.0 3.0 0.00 0.00 0.00 44 1014.8
20260505193034 72 77 0.0 2.0 0.00 0.00 0.00 46 1014.9
20260505191523 70 92 0.0 4.0 0.00 0.00 0.00 49 1014.9
20260505190100 69 98 0.0 3.0 0.00 0.00 0.00 51 1015.0
20260505184558 68 78 0.0 4.0 0.00 0.00 0.00 54 1015.1
20260505183048 68 121 0.0 7.0 0.00 0.00 0.00 52 1015.3
20260505181537 67 30 0.0 4.0 0.00 0.00 0.00 54 1015.2
20260505180019 65 76 0.0 6.0 0.00 0.00 0.00 62 1015.1
20260505174512 64 65 0.0 4.0 0.00 0.00 0.00 63 1015.0
20260505173055 62 82 0.0 5.0 0.00 0.00 0.00 67 1014.8
20260505171552 59 126 0.0 3.0 0.00 0.00 0.00 74 1014.7
20260505170047 58 93 0.0 3.0 0.00 0.00 0.00 77 1014.8
20260505164555 57 96 0.0 3.0 0.00 0.00 0.00 81 1014.7
20260505163040 55 69 0.0 3.0 0.00 0.00 0.00 84 1014.7
20260505161548 54 60 0.0 2.0 0.00 0.00 0.00 85 1014.6
20260505153014 53 59 0.0 3.0 0.00 0.00 0.00 89 1014.6
20260505151512 52 59 0.0 4.0 0.00 0.00 0.00 89 1014.4
20260505124545 51 155 0.0 5.0 0.00 0.00 0.00 91 1013.4
20260505123017 51 106 0.0 4.0 0.00 0.00 0.00 91 1013.2
20260505121516 51 144 1.0 6.0 0.00 0.00 0.00 90 1013.3
20260505120114 52 136 1.0 5.0 0.00 0.00 0.00 89 1013.4
20260505114555 52 160 0.0 8.0 0.00 0.00 0.00 88 1013.2
20260505113111 53 164 1.0 10.0 0.00 0.00 0.00 86 1013.2
20260505111534 53 111 0.0 5.0 0.00 0.00 0.00 85 1013.3
20260505101554 55 82 0.0 5.0 0.00 0.00 0.00 82 1013.2
20260505100054 55 86 1.0 6.0 0.00 0.00 0.00 81 1013.2
20260505094535 55 88 0.0 3.0 0.00 0.00 0.00 81 1013.1
20260505093034 55 96 0.0 2.0 0.00 0.00 0.00 80 1013.1
20260505091516 55 86 0.0 6.0 0.00 0.00 0.00 80 1013.2
20260505090016 55 89 0.0 3.0 0.00 0.00 0.00 81 1013.3
20260505084558 55 92 0.0 3.0 0.00 0.00 0.00 81 1013.2
20260505083103 55 109 0.0 3.0 0.00 0.00 0.00 81 1013.2
20260505081546 55 117 0.0 1.0 0.00 0.00 0.00 80 1013.3
20260505080039 55 117 0.0 1.0 0.00 0.00 0.00 80 1013.4
20260505074520 55 117 0.0 2.0 0.00 0.00 0.00 80 1013.5
20260505073020 55 131 0.0 3.0 0.00 0.00 0.00 79 1013.4
20260505071502 55 137 0.0 2.0 0.00 0.00 0.00 79 1013.4
20260505070001 56 89 0.0 1.0 0.00 0.00 0.00 78 1013.4
20260505064548 56 89 0.0 2.0 0.00 0.00 0.00 77 1013.3
20260505063044 56 138 0.0 4.0 0.00 0.00 0.00 77 1013.2
20260505061526 56 101 0.0 3.0 0.00 0.00 0.00 77 1013.4
20260505060033 56 106 0.0 3.0 0.00 0.00 0.00 77 1013.5
20260505054506 56 108 0.0 3.0 0.00 0.00 0.00 77 1013.4
20260505053006 57 109 0.0 3.0 0.00 0.00 0.00 76 1013.5